Overview Statistics Trail Chart Weather Telemetry Raw packets
 

This is the latest recevied weather packets stored in our database for station/object WX0ABE-13. If no packets are shown the sender has not sent any weather packets the latest 10 day(s).

<< 25 26 27 28 29 30 31 >>
Time Temp. Humidity Pressure Rain* Wind** Luminosity Snow
1788184884 18.33° C 75% 1019.5 hPa 0 mm - 55 W/m² -
1788184582 18.33° C 77% 1019.4 hPa 0 mm - 59 W/m² -
1788184278 17.78° C 80% 1019.4 hPa 0 mm - 56 W/m² -
1788183974 17.78° C 79% 1019.1 hPa 0 mm - 50 W/m² -
1788183674 17.22° C 79% 1019.2 hPa 0 mm - 49 W/m² -
1788183373 17.22° C 80% 1019.3 hPa 0 mm - 49 W/m² -
1788183069 16.67° C 80% 1019.4 hPa 0 mm - 46 W/m² -
1788182765 16.67° C 81% 1019.2 hPa 0 mm - 43 W/m² -
1788182463 16.67° C 81% 1018.9 hPa 0 mm - 39 W/m² -
1788182158 16.67° C 81% 1018.9 hPa 0 mm - 34 W/m² -
1788181855 16.67° C 81% 1018.6 hPa 0 mm - 29 W/m² -
1788181550 16.11° C 82% 1018.4 hPa 0 mm - 25 W/m² -
1788181246 16.11° C 83% 1018.3 hPa 0 mm - 23 W/m² -
1788180944 16.11° C 83% 1018.4 hPa 0 mm - 22 W/m² -
1788180640 16.11° C 83% 1018.5 hPa 0 mm - 20 W/m² -
1788180336 16.11° C 84% 1018.3 hPa 0 mm - 17 W/m² -
1788180032 15.56° C 85% 1018.2 hPa 0 mm - 14 W/m² -
1788179731 15.56° C 85% 1018.3 hPa 0 mm - 10 W/m² -
1788179431 15.56° C 85% 1018.3 hPa 0 mm - 7 W/m² -
1788179131 15.56° C 86% 1018.3 hPa 0 mm - 5 W/m² -
1788178826 15.56° C 86% 1018.3 hPa 0 mm - 3 W/m² -
1788178521 15.56° C 87% 1017.8 hPa 0 mm - 1 W/m² -
1788178217 15.56° C 86% 1017.8 hPa 0 mm - 1 W/m² -
1788177916 15.56° C 86% 1018 hPa 0 mm - 0 W/m² -
1788177612 15.56° C 86% 1017.8 hPa 0 mm - 0 W/m² -

* Rain latest hour (hover to see other rain measurements)
** Current wind speed in m/s (hover to see current wind gust speed)